Voltar ao catálogo

DELTA 1 DEB

AtivoSSO
NORAD 12167·DEBRIS·🇺🇸 United States

Lançado Mar 5, 1978 de Vandenberg Space Force Base

Loading…

Próximas Passagens (próximas 24 horas)

TLE

AtualizadoSource: Space-Track

Época: Sep 14, 2026, 08:03 UTC

1 12167U 78026G   26257.33607137  .00000340  00000-0  17285-3 0  9995
2 12167  98.7640 202.6614 0157268 290.5629 222.5933 14.16150605344507

Acompanhe DELTA 1 DEB em tempo real com AllMySat

Download on the App Store